Pellston, MI

1:56 PM EST on December 02, 2016 (GMT -0500)
Pellston Regional Airport Of Emmet County

Weather History for KPLN - June, 2012

Change the Weather History Date:

Saturday, June 30, 2012

  Actual Average Record
Temperature  
Mean Temperature 70 °F -  
Max Temperature 82 °F 77 °F 93 °F (1963)
Min Temperature 57 °F 51 °F 37 °F (1992)
Cooling Degree Days 4    
Growing Degree Days 20 (Base 50)    
Moisture  
Dew Point 57 °F    
Average Humidity 62    
Maximum Humidity 97    
Minimum Humidity 38    
Precipitation  
Precipitation 0.00 in - - ()
Sea Level Pressure  
Sea Level Pressure 29.77 in    
Wind  
Wind Speed 5 mph (WNW)    
Max Wind Speed 20 mph    
Max Gust Speed 26 mph    
Visibility 10 miles    
Events      
Averages and records for this station are not official NWS values.
T = Trace of Precipitation, MM = Missing Value Source: NWS Daily Summary

Daily Weather History Graph

Daily Weather History Graph

Search for Another Location

Airport or City:

Trip Planner

Search our weather history database for the weather conditions in past years. The results will help you decide how hot, cold, wet, or windy it might be!

Date:

Astronomy

Jun. 30, 2012 Rise Set
Actual Time 5:53 AM EDT 9:31 PM EDT
Civil Twilight 5:15 AM EDT 10:09 PM EDT
Nautical Twilight 4:25 AM EDT 11:00 PM EDT
Astronomical Twilight 3:17 AM EDT 12:07 AM EDT
Moon 6:24 PM EDT (6/30) 2:52 AM EDT (6/30)
Length of Visible Light 16h 53m
Length of Day
15h 38m
Waxing Gibbous, 87% of the Moon is Illuminated
Jun 30
Waxing Gibbous
Jul 3
Full
Jul 10
Last Quarter
Jul 19
New
Jul 26
First Quarter

Hourly Weather History & Observations

Time (EDT) Temp. Heat Index Dew Point Humidity Pressure Visibility Wind Dir Wind Speed Gust Speed Precip Events Conditions
12:54 AM 57.9 °F - 57.0 °F 97% 29.71 in 10.0 mi Calm Calm - N/A   Scattered Clouds
1:54 AM 57.9 °F - 57.0 °F 97% 29.72 in 10.0 mi Calm Calm - N/A   Scattered Clouds
2:54 AM 64.9 °F - 59.0 °F 81% 29.71 in 10.0 mi Calm Calm - N/A   Mostly Cloudy
3:54 AM 62.1 °F - 57.9 °F 86% 29.70 in 10.0 mi Calm Calm - N/A   Clear
4:54 AM 66.9 °F - 60.1 °F 79% 29.69 in 10.0 mi West 4.6 mph - N/A   Clear
5:54 AM 66.0 °F - 60.1 °F 81% 29.70 in 10.0 mi West 5.8 mph - N/A   Clear
7:54 AM 71.1 °F - 60.1 °F 68% 29.72 in 10.0 mi West 6.9 mph - N/A   Clear
8:54 AM 73.9 °F - 57.9 °F 57% 29.73 in 10.0 mi WNW 11.5 mph - N/A   Clear
9:54 AM 77.0 °F - 55.9 °F 48% 29.74 in 10.0 mi West 9.2 mph - N/A   Clear
10:54 AM 77.0 °F - 55.4 °F 47% 29.74 in 10.0 mi West 10.4 mph - N/A   Clear
11:54 AM 80.1 °F 80.4 °F 57.0 °F 45% 29.75 in 10.0 mi WNW 9.2 mph - N/A   Clear
12:54 PM 82.0 °F 81.4 °F 55.0 °F 39% 29.77 in 10.0 mi NW 11.5 mph - N/A   Clear
1:54 PM 82.0 °F 81.3 °F 54.0 °F 38% 29.77 in 10.0 mi NW 19.6 mph 26.5 mph N/A   Clear
2:54 PM 82.9 °F 82.1 °F 55.9 °F 39% 29.78 in 10.0 mi NW 12.7 mph - N/A   Clear
3:54 PM 82.0 °F 81.6 °F 55.9 °F 41% 29.78 in 10.0 mi WNW 13.8 mph - N/A   Partly Cloudy
4:54 PM 82.0 °F 81.6 °F 55.9 °F 41% 29.79 in 10.0 mi WNW 16.1 mph 23.0 mph N/A   Partly Cloudy
5:54 PM 81.0 °F 80.7 °F 55.0 °F 41% 29.79 in 10.0 mi NW 12.7 mph - N/A   Clear
6:54 PM 80.1 °F 80.2 °F 55.9 °F 43% 29.80 in 10.0 mi NW 9.2 mph - N/A   Clear
7:54 PM 77.0 °F - 55.9 °F 48% 29.81 in 10.0 mi WNW 8.1 mph - N/A   Clear
8:54 PM 73.0 °F - 55.9 °F 55% 29.83 in 10.0 mi NW 8.1 mph - N/A   Clear
9:54 PM 66.9 °F - 57.0 °F 70% 29.84 in 10.0 mi WNW 4.6 mph - N/A   Clear
10:54 PM 62.1 °F - 57.0 °F 84% 29.86 in 10.0 mi Calm Calm - N/A   Clear
11:54 PM 59.0 °F - 57.2 °F 94% 29.87 in 10.0 mi Calm Calm - N/A   Clear